Galesburg, IL

4:26 AM CST on December 08, 2019 (GMT -0600)
Galesburg Municipal

Weather History for KGBG - May, 2019

Change the Weather History Date:

Wednesday, May 8, 2019

  Actual Average Record
Temperature  
Mean Temperature 60 °F -  
Max Temperature 76 °F 70 °F 90 °F (1963)
Min Temperature 46 °F 48 °F 33 °F (1960)
Degree Days  
Heating Degree Days 4    
Growing Degree Days 10 (Base 50)    
Moisture  
Dew Point 54 °F    
Average Humidity 85    
Maximum Humidity 98    
Minimum Humidity 63    
Precipitation  
Precipitation 0.42 in - - ()
Sea Level Pressure  
Sea Level Pressure 29.87 in    
Wind  
Wind Speed 13 mph (ESE)    
Max Wind Speed 26 mph    
Max Gust Speed 34 mph    
Visibility 9 miles    
Events Rain , Thunderstorm    
Averages and records for this station are not official NWS values.
T = Trace of Precipitation, MM = Missing Value Source: NWS Daily Summary

Daily Weather History Graph

Daily Weather History Graph

Search for Another Location

Airport or City:

Astronomy

May. 08, 2019 Rise Set
Actual Time 5:51 AM CDT 8:05 PM CDT
Civil Twilight 5:21 AM CDT 8:36 PM CDT
Nautical Twilight 4:43 AM CDT 9:13 PM CDT
Astronomical Twilight 4:02 AM CDT 9:55 PM CDT
Moon 8:47 AM CDT No Moon Set
Length of Visible Light 15h 14m
Length of Day
14h 13m
Waxing Crescent, 16% of the Moon is Illuminated
May 8
Waxing Crescent
May 11
First Quarter
May 18
Full
May 26
Last Quarter
Jun 3
New

Hourly Weather History & Observations

Time (CDT) Temp. Windchill Dew Point Humidity Pressure Visibility Wind Dir Wind Speed Gust Speed Precip Events Conditions
12:15 AM 48.2 °F - 46.9 °F 95% 30.13 in 10.0 mi ENE 15.0 mph - N/A   Overcast
12:35 AM 47.7 °F - 45.9 °F 93% 30.13 in 10.0 mi East 12.7 mph 20.7 mph N/A   Overcast
12:55 AM 47.7 °F - 45.7 °F 93% 30.13 in 10.0 mi ENE 12.7 mph 21.9 mph N/A   Overcast
1:15 AM 47.3 °F - 45.3 °F 93% 30.12 in 7.0 mi East 13.8 mph 21.9 mph N/A Rain Light Rain
1:35 AM 46.9 °F - 45.1 °F 93% 30.10 in 7.0 mi ENE 10.4 mph - 0.01 in Rain Rain
1:55 AM 46.9 °F - 45.3 °F 94% 30.10 in 7.0 mi ENE 13.8 mph 21.9 mph 0.01 in Rain Light Rain
2:15 AM 46.8 °F - 45.1 °F 94% 30.10 in 7.0 mi ENE 9.2 mph - N/A Rain Rain
2:35 AM 46.6 °F - 44.8 °F 93% 30.08 in 5.0 mi East 13.8 mph 23.0 mph 0.03 in Rain Heavy Rain
2:55 AM 46.4 °F 40.7 °F 44.8 °F 94% 30.07 in 10.0 mi East 12.7 mph 18.4 mph 0.04 in Rain Light Rain
3:15 AM 46.6 °F - 44.8 °F 93% 30.08 in 10.0 mi East 11.5 mph 19.6 mph 0.01 in Rain Light Rain
3:35 AM 46.6 °F - 44.6 °F 93% 30.06 in 10.0 mi ENE 12.7 mph 18.4 mph 0.01 in   Overcast
3:55 AM 46.6 °F - 44.6 °F 93% 30.05 in 10.0 mi ENE 12.7 mph - 0.01 in   Overcast
4:15 AM 46.6 °F - 44.4 °F 92% 30.04 in 10.0 mi East 13.8 mph 17.3 mph N/A   Overcast
4:35 AM 46.8 °F - 44.2 °F 91% 30.03 in 10.0 mi East 15.0 mph 21.9 mph N/A   Overcast
4:55 AM 46.9 °F - 44.4 °F 91% 30.03 in 10.0 mi East 12.7 mph 20.7 mph N/A   Mostly Cloudy
5:15 AM 47.3 °F - 44.6 °F 90% 30.02 in 10.0 mi East 12.7 mph 19.6 mph N/A   Mostly Cloudy
5:35 AM 47.5 °F - 44.6 °F 90% 30.02 in 10.0 mi East 12.7 mph 20.7 mph N/A   Mostly Cloudy
5:55 AM 48.0 °F - 45.0 °F 89% 30.00 in 10.0 mi East 13.8 mph 26.5 mph N/A   Mostly Cloudy
6:15 AM 48.4 °F - 45.3 °F 89% 30.02 in 10.0 mi East 10.4 mph 18.4 mph N/A Thunderstorm Overcast
6:35 AM 48.2 °F - 45.7 °F 91% 30.03 in 4.0 mi East 8.1 mph - 0.06 in Rain Heavy Rain
6:55 AM 48.2 °F - 46.0 °F 92% 30.00 in 2.0 mi East 15.0 mph 18.4 mph 0.21 in Rain , Thunderstorm Light Thunderstorms and Rain
7:15 AM 47.8 °F - 47.3 °F 98% 29.99 in 3.0 mi East 13.8 mph 21.9 mph 0.06 in   Overcast
7:35 AM 48.6 °F - 47.8 °F 97% 29.97 in 10.0 mi East 16.1 mph 21.9 mph 0.08 in Rain Light Rain
7:55 AM 49.5 °F - 47.5 °F 93% 29.97 in 10.0 mi East 12.7 mph 19.6 mph 0.08 in   Overcast
8:15 AM 49.8 °F - 47.3 °F 91% 29.97 in 10.0 mi East 15.0 mph 25.3 mph N/A   Overcast
8:35 AM 50.7 °F - 47.5 °F 89% 29.96 in 10.0 mi East 12.7 mph 24.2 mph N/A   Mostly Cloudy
8:55 AM 51.6 °F - 48.2 °F 88% 29.95 in 10.0 mi East 17.3 mph 26.5 mph N/A   Scattered Clouds
9:15 AM 52.0 °F - 48.4 °F 88% 29.94 in 10.0 mi East 11.5 mph 23.0 mph N/A   Scattered Clouds
9:35 AM 53.6 °F - 49.5 °F 86% 29.92 in 10.0 mi East 17.3 mph 24.2 mph N/A   Scattered Clouds
9:55 AM 53.6 °F - 49.6 °F 86% 29.91 in 10.0 mi East 13.8 mph 24.2 mph N/A   Scattered Clouds
10:15 AM 53.8 °F - 50.4 °F 88% 29.90 in 10.0 mi East 13.8 mph 21.9 mph N/A   Clear
10:35 AM 55.8 °F - 51.6 °F 86% 29.88 in 10.0 mi East 17.3 mph 23.0 mph N/A   Clear
10:55 AM 56.8 °F - 52.2 °F 84% 29.89 in 10.0 mi East 13.8 mph 20.7 mph N/A   Clear
11:15 AM 58.6 °F - 52.5 °F 80% 29.88 in 10.0 mi East 16.1 mph 26.5 mph N/A   Clear
11:35 AM 59.4 °F - 53.2 °F 80% 29.87 in 10.0 mi East 12.7 mph 21.9 mph N/A   Clear
11:55 AM 59.5 °F - 53.4 °F 80% 29.87 in 10.0 mi ESE 13.8 mph 20.7 mph N/A   Clear
12:15 PM 60.3 °F - 54.0 °F 80% 29.86 in 10.0 mi ESE 11.5 mph 17.3 mph N/A   Clear
12:35 PM 61.7 °F - 54.9 °F 78% 29.85 in 10.0 mi East 10.4 mph 19.6 mph N/A   Scattered Clouds
12:55 PM 63.7 °F - 56.3 °F 77% 29.82 in 10.0 mi East 13.8 mph 19.6 mph N/A   Scattered Clouds
1:15 PM 65.3 °F - 57.2 °F 75% 29.81 in 10.0 mi East 13.8 mph 20.7 mph N/A   Clear
1:35 PM 67.5 °F - 59.2 °F 75% 29.78 in 10.0 mi ESE 13.8 mph 23.0 mph N/A   Clear
1:55 PM 68.5 °F - 59.7 °F 73% 29.76 in 10.0 mi ESE 16.1 mph 26.5 mph N/A   Clear
2:15 PM 70.5 °F - 61.0 °F 72% 29.74 in 10.0 mi ESE 19.6 mph 24.2 mph N/A   Clear
2:35 PM 72.7 °F - 62.1 °F 69% 29.73 in 10.0 mi ESE 15.0 mph 25.3 mph N/A   Clear
2:55 PM 74.7 °F - 63.7 °F 69% 29.71 in 10.0 mi ESE 12.7 mph 18.4 mph N/A   Mostly Cloudy
3:15 PM 75.9 °F - 63.5 °F 65% 29.71 in 10.0 mi ESE 11.5 mph 23.0 mph N/A   Mostly Cloudy
3:35 PM 75.7 °F - 63.0 °F 64% 29.70 in 10.0 mi ESE 10.4 mph 19.6 mph N/A   Overcast
3:55 PM 74.1 °F - 62.4 °F 67% 29.69 in 10.0 mi ESE 18.4 mph 26.5 mph N/A Rain Light Rain
4:15 PM 74.8 °F - 61.3 °F 63% 29.69 in 10.0 mi East 11.5 mph 20.7 mph N/A Rain Light Rain
4:35 PM 73.4 °F - 61.9 °F 67% 29.68 in 10.0 mi ESE 15.0 mph 20.7 mph N/A Rain Light Rain
4:55 PM 72.7 °F - 62.2 °F 70% 29.69 in 10.0 mi SSE 12.7 mph 23.0 mph N/A Rain Light Rain
5:15 PM 72.1 °F - 63.0 °F 73% 29.70 in 10.0 mi WSW 13.8 mph 18.4 mph N/A Rain Rain
5:35 PM 70.3 °F - 64.0 °F 80% 29.71 in 10.0 mi WSW 16.1 mph - N/A Rain Light Rain
5:55 PM 70.3 °F - 61.7 °F 74% 29.71 in 10.0 mi WSW 19.6 mph 25.3 mph N/A Rain Light Rain
6:15 PM 69.6 °F - 60.3 °F 72% 29.72 in 10.0 mi WSW 26.5 mph 34.5 mph N/A   Drizzle
6:35 PM 68.4 °F - 60.1 °F 75% 29.72 in 10.0 mi WSW 21.9 mph 32.2 mph N/A   Drizzle
6:55 PM 67.1 °F - 60.1 °F 78% 29.71 in 10.0 mi WSW 17.3 mph 28.8 mph N/A   Light Drizzle
7:15 PM 66.7 °F - 59.9 °F 79% 29.71 in 10.0 mi WSW 16.1 mph 21.9 mph N/A   Scattered Clouds
7:35 PM 66.4 °F - 59.7 °F 79% 29.71 in 10.0 mi WSW 17.3 mph 26.5 mph N/A   Drizzle
7:55 PM 65.7 °F - 60.3 °F 83% 29.72 in 10.0 mi WSW 16.1 mph 23.0 mph N/A   Light Drizzle
8:15 PM 65.7 °F - 60.8 °F 84% 29.73 in 10.0 mi South 10.4 mph 19.6 mph N/A Rain Rain
8:35 PM 65.3 °F - 61.0 °F 86% 29.73 in 10.0 mi SW 13.8 mph - 0.01 in Rain Light Rain
8:55 PM 64.4 °F - 61.2 °F 89% 29.73 in 10.0 mi SW 13.8 mph 17.3 mph 0.02 in Rain Rain
9:15 PM 64.4 °F - 61.7 °F 91% 29.74 in 10.0 mi WSW 10.4 mph - N/A Rain Rain
9:35 PM 64.4 °F - 61.9 °F 92% 29.74 in 10.0 mi WSW 8.1 mph - 0.01 in   Overcast
9:55 PM 64.4 °F - 61.9 °F 92% 29.74 in 10.0 mi SSE 4.6 mph - 0.01 in Rain Light Rain
10:15 PM 63.7 °F - 61.9 °F 94% 29.73 in 10.0 mi East 3.5 mph - 0.01 in   Light Drizzle
10:35 PM 63.5 °F - 62.6 °F 97% 29.72 in 7.0 mi SSE 9.2 mph - 0.03 in Rain Light Rain
10:55 PM 63.5 °F - 62.1 °F 95% 29.71 in 10.0 mi ESE 5.8 mph - 0.03 in   Overcast
11:15 PM 63.5 °F - 62.6 °F 97% 29.70 in 10.0 mi ESE 8.1 mph - N/A   Overcast
11:35 PM 63.9 °F - 62.6 °F 96% 29.69 in 10.0 mi East 13.8 mph - N/A Rain Light Rain
11:55 PM 63.7 °F - 63.0 °F 97% 29.69 in 10.0 mi ESE 12.7 mph 19.6 mph 0.01 in Rain Light Rain